Location: Arcueil
(48.7999°N, 2.3326°E)
Time: 20:25:13
(UTC+00:00)

JY1SAT - Pass Details

Date: 22 June 2024
Orbit: 535 x 549 km, 97.5° (Epoch: 18 July)

Event Time Altitude Azimuth Distance (km) Brightness Sun altitude
Exits shadow 21:05:55 - 183° (S) 2,284 ? -8.7°
Reaches altitude 10° 21:07:04 10° 187° (S) 1,820 ? -8.8°
Maximum altitude 21:10:51 45° 261° (W) 758 ? -9.2°
Drops below altitude 10° 21:14:41 10° 335° (NNW) 1,843 ? -9.6°
Sets 21:16:55 0° 342° (NNW) 2,744 ? -9.8°
